Precipitable_Water
0.29 0.27 0.25 0.25 0.24 0.21 0.20 0.19 0.19 0.19 0.19 0.20 0.18 0.17 0.17 0.20 0.18 0.16 0.20 0.24 0.22 0.23 0.26 0.29 0.33 0.34 0.37 0.40 0.41 0.41 0.45 0.50 0.52 0.53 0.53 0.55 0.59 0.70 0.70 0.68 0.69 0.70 0.70 0.75 0.82 0.88 0.92 0.96 0.98 1.04 1.10 1.15 1.20 1.24 1.27 1.31 1.35 1.37 1.43 1.43 1.44 1.47 1.51 1.50 1.53 1.61 1.62 1.63 1.64 1.45 1.25 1.25 1.32 1.46 1.54 1.59 1.67 1.52 1.38 1.34 1.32 1.34 1.44 1.45 1.42 1.44 1.47
0.29 0.28 0.26 0.25 0.24 0.23 0.21 0.21 0.22 0.22 0.21 0.20 0.20 0.20 0.21 0.20 0.17 0.17 0.19 0.21 0.21 0.24 0.27 0.29 0.33 0.35 0.38 0.40 0.43 0.46 0.46 0.45 0.48 0.52 0.53 0.55 0.58 0.63 0.68 0.68 0.66 0.66 0.71 0.79 0.83 0.88 0.90 0.91 0.95 1.01 1.06 1.10 1.13 1.15 1.18 1.24 1.28 1.34 1.38 1.33 1.32 1.37 1.42 1.49 1.53 1.55 1.58 1.63 1.65 1.64 1.52 1.30 1.28 1.35 1.41 1.48 1.60 1.45 1.35 1.34 1.33 1.41 1.50 1.44 1.39 1.42 1.42
0.31 0.29 0.28 0.26 0.25 0.24 0.21 0.21 0.21 0.21 0.23 0.24 0.24 0.22 0.21 0.23 0.22 0.22 0.21 0.21 0.21 0.24 0.29 0.31 0.36 0.40 0.43 0.44 0.41 0.41 0.44 0.47 0.48 0.49 0.49 0.51 0.54 0.60 0.69 0.71 0.68 0.69 0.75 0.81 0.86 0.87 0.90 0.93 0.96 1.01 1.05 1.08 1.12 1.16 1.20 1.24 1.23 1.32 1.35 1.33 1.37 1.42 1.47 1.50 1.55 1.61 1.62 1.66 1.68 1.65 1.62 1.56 1.40 1.32 1.39 1.48 1.52 1.51 1.51 1.49 1.45 1.54 1.57 1.42 1.38 1.42 1.39
0.30 0.30 0.28 0.27 0.27 0.25 0.23 0.20 0.20 0.21 0.20 0.20 0.22 0.24 0.27 0.24 0.22 0.23 0.24 0.21 0.20 0.25 0.30 0.33 0.36 0.40 0.40 0.37 0.37 0.40 0.44 0.48 0.50 0.48 0.49 0.52 0.55 0.61 0.68 0.70 0.69 0.71 0.75 0.79 0.82 0.84 0.89 0.96 1.01 1.04 1.07 1.11 1.13 1.14 1.22 1.27 1.34 1.44 1.49 1.52 1.55 1.58 1.60 1.59 1.60 1.58 1.58 1.61 1.64 1.68 1.72 1.72 1.71 1.62 1.51 1.46 1.53 1.57 1.60 1.59 1.53 1.51 1.55 1.52 1.48 1.50 1.41
0.32 0.34 0.33 0.29 0.28 0.26 0.23 0.21 0.21 0.22 0.23 0.23 0.24 0.25 0.27 0.27 0.27 0.25 0.23 0.22 0.25 0.27 0.33 0.32 0.34 0.38 0.38 0.38 0.38 0.42 0.47 0.51 0.53 0.51 0.52 0.53 0.55 0.60 0.65 0.68 0.68 0.72 0.75 0.79 0.81 0.85 0.94 0.99 1.03 1.07 1.11 1.12 1.12 1.19 1.25 1.36 1.47 1.51 1.53 1.55 1.57 1.58 1.63 1.63 1.59 1.57 1.59 1.64 1.71 1.75 1.82 1.84 1.82 1.78 1.62 1.47 1.50 1.52 1.55 1.57 1.52 1.49 1.52 1.58 1.57 1.56 1.43
0.33 0.35 0.36 0.34 0.29 0.22 0.21 0.25 0.25 0.24 0.23 0.24 0.23 0.24 0.25 0.27 0.28 0.26 0.27 0.27 0.30 0.31 0.30 0.31 0.34 0.37 0.39 0.42 0.47 0.51 0.51 0.51 0.53 0.55 0.60 0.63 0.65 0.67 0.71 0.77 0.84 0.89 0.91 0.92 0.93 0.94 0.96 1.01 1.06 1.11 1.14 1.15 1.23 1.31 1.38 1.45 1.48 1.53 1.54 1.58 1.60 1.60 1.63 1.64 1.63 1.62 1.64 1.67 1.69 1.73 1.68 1.60 1.66 1.59 1.61 1.51 1.51 1.56 1.56 1.54 1.52 1.51 1.57 1.55 1.53 1.54 1.44
0.36 0.39 0.37 0.30 0.24 0.23 0.29 0.31 0.30 0.28 0.27 0.26 0.25 0.26 0.28 0.29 0.30 0.29 0.28 0.29 0.30 0.31 0.33 0.34 0.38 0.43 0.44 0.47 0.50 0.54 0.56 0.56 0.55 0.56 0.58 0.60 0.64 0.67 0.70 0.76 0.85 0.95 0.97 1.00 1.01 1.02 1.04 1.09 1.17 1.21 1.22 1.25 1.29 1.31 1.34 1.35 1.41 1.44 1.49 1.53 1.55 1.57 1.56 1.58 1.57 1.55 1.54 1.53 1.52 1.52 1.61 1.66 1.61 1.55 1.54 1.56 1.50 1.49 1.46 1.48 1.49 1.49 1.49 1.49 1.44 1.47 1.48
0.43 0.34 0.33 0.26 0.26 0.34 0.34 0.35 0.35 0.36 0.32 0.31 0.29 0.28 0.33 0.36 0.33 0.32 0.28 0.28 0.31 0.35 0.38 0.41 0.44 0.44 0.47 0.51 0.56 0.59 0.61 0.61 0.59 0.57 0.57 0.61 0.63 0.64 0.71 0.77 0.83 0.93 0.96 1.01 1.08 1.14 1.22 1.22 1.16 1.12 1.10 1.13 1.10 1.08 1.14 1.17 1.22 1.27 1.30 1.30 1.34 1.37 1.37 1.36 1.38 1.41 1.41 1.41 1.45 1.48 1.50 1.54 1.51 1.45 1.39 1.33 1.32 1.36 1.38 1.42 1.46 1.42 1.39 1.44 1.50 1.51 1.51
0.38 0.37 0.35 0.34 0.41 0.36 0.36 0.35 0.34 0.34 0.29 0.28 0.27 0.23 0.29 0.36 0.40 0.38 0.33 0.33 0.36 0.39 0.42 0.45 0.46 0.48 0.51 0.51 0.55 0.65 0.64 0.64 0.64 0.62 0.63 0.66 0.67 0.73 0.81 0.88 0.95 0.94 1.00 1.07 1.17 1.19 1.11 1.07 1.04 1.02 1.03 1.04 1.00 1.01 1.03 1.08 1.07 1.06 1.04 1.03 1.04 1.08 1.10 1.20 1.27 1.32 1.34 1.33 1.36 1.40 1.43 1.42 1.38 1.31 1.27 1.30 1.33 1.37 1.34 1.40 1.40 1.34 1.35 1.42 1.47 1.48 1.37
0.50 0.41 0.37 0.36 0.33 0.26 0.31 0.40 0.49 0.50 0.46 0.39 0.36 0.29 0.30 0.41 0.46 0.45 0.40 0.38 0.42 0.43 0.45 0.46 0.48 0.52 0.48 0.45 0.49 0.63 0.67 0.67 0.66 0.67 0.69 0.72 0.76 0.81 0.88 0.97 1.04 1.08 1.04 1.03 1.08 1.08 1.04 1.02 1.01 1.01 0.99 0.98 0.99 0.99 1.03 1.07 1.07 1.05 1.04 1.05 1.11 1.15 1.18 1.24 1.28 1.33 1.35 1.34 1.33 1.37 1.40 1.38 1.32 1.29 1.27 1.27 1.27 1.31 1.27 1.28 1.28 1.33 1.38 1.40 1.38 1.31 1.19
0.49 0.45 0.39 0.36 0.30 0.32 0.43 0.48 0.51 0.54 0.52 0.47 0.45 0.31 0.26 0.42 0.47 0.48 0.46 0.43 0.45 0.45 0.44 0.47 0.49 0.48 0.43 0.47 0.56 0.68 0.71 0.73 0.75 0.71 0.73 0.76 0.82 0.88 0.96 0.99 1.01 1.02 0.97 0.96 0.99 1.04 1.05 0.98 0.98 0.99 0.98 0.97 0.96 0.96 0.99 1.03 1.05 1.04 1.05 1.10 1.15 1.20 1.26 1.31 1.34 1.36 1.40 1.43 1.43 1.43 1.39 1.33 1.26 1.20 1.18 1.19 1.22 1.22 1.21 1.22 1.23 1.28 1.30 1.28 1.25 1.19 1.19
0.52 0.47 0.41 0.37 0.40 0.38 0.48 0.54 0.57 0.58 0.61 0.56 0.41 0.22 0.25 0.40 0.49 0.52 0.51 0.46 0.47 0.49 0.51 0.53 0.56 0.53 0.45 0.52 0.63 0.77 0.80 0.81 0.86 0.86 0.82 0.85 0.89 0.94 0.96 0.99 1.02 1.00 1.00 0.97 0.96 0.97 0.94 0.92 0.97 0.96 0.95 0.94 0.93 0.96 1.00 1.05 1.04 1.03 1.06 1.10 1.19 1.26 1.28 1.31 1.34 1.37 1.40 1.43 1.45 1.41 1.35 1.28 1.25 1.20 1.18 1.19 1.19 1.17 1.16 1.17 1.19 1.22 1.23 1.22 1.18 1.15 1.19
0.54 0.49 0.46 0.46 0.47 0.57 0.61 0.61 0.64 0.64 0.67 0.53 0.27 0.20 0.32 0.49 0.55 0.56 0.56 0.55 0.57 0.60 0.60 0.61 0.56 0.67 0.72 0.76 0.85 0.90 0.92 0.90 0.91 0.93 0.95 0.96 0.97 0.95 0.95 0.96 0.98 0.97 0.98 0.98 0.93 0.90 0.91 0.94 0.95 0.97 0.98 0.97 0.98 1.00 1.00 1.01 1.01 1.06 1.12 1.20 1.22 1.25 1.28 1.31 1.34 1.38 1.42 1.44 1.45 1.42 1.33 1.28 1.27 1.25 1.26 1.23 1.17 1.12 1.11 1.12 1.13 1.13 1.13 1.13 1.12 1.13 1.17
0.50 0.51 0.45 0.46 0.52 0.63 0.69 0.70 0.69 0.72 0.53 0.30 0.26 0.44 0.61 0.62 0.61 0.66 0.66 0.64 0.69 0.71 0.70 0.71 0.72 0.80 0.88 0.92 0.95 0.94 0.92 0.90 0.92 0.94 0.96 0.96 0.97 1.00 1.01 1.02 1.01 1.01 1.02 1.00 0.99 0.97 0.98 1.00 1.02 1.03 1.03 1.00 1.01 1.00 1.00 1.00 1.06 1.15 1.21 1.24 1.27 1.27 1.30 1.32 1.36 1.38 1.41 1.46 1.46 1.37 1.34 1.29 1.26 1.26 1.27 1.21 1.13 1.09 1.09 1.09 1.07 1.05 1.05 1.07 1.08 1.10 1.14
0.60 0.54 0.48 0.45 0.38 0.61 0.74 0.73 0.67 0.71 0.47 0.48 0.56 0.63 0.67 0.72 0.72 0.72 0.76 0.79 0.80 0.75 0.72 0.76 0.76 0.79 0.82 0.84 0.86 0.87 0.89 0.88 0.90 0.94 0.95 0.95 0.97 0.99 1.01 1.03 1.09 1.07 1.05 1.03 0.99 0.98 1.01 1.02 1.03 1.04 1.03 0.99 0.98 0.99 0.98 1.05 1.13 1.19 1.25 1.28 1.28 1.29 1.30 1.32 1.35 1.38 1.41 1.41 1.37 1.34 1.29 1.31 1.29 1.27 1.26 1.17 1.11 1.09 1.06 1.05 1.04 1.01 1.02 1.05 1.04 1.03 1.06
0.53 0.49 0.45 0.49 0.64 0.76 0.84 0.76 0.59 0.68 0.69 0.75 0.73 0.69 0.66 0.76 0.79 0.77 0.76 0.78 0.81 0.83 0.78 0.77 0.77 0.78 0.78 0.80 0.83 0.84 0.86 0.88 0.89 0.89 0.91 0.96 1.00 0.98 0.97 0.97 0.99 1.01 1.01 1.03 1.01 1.02 1.03 1.04 1.04 1.05 1.03 0.97 0.97 0.98 1.02 1.13 1.16 1.21 1.23 1.26 1.26 1.26 1.29 1.32 1.37 1.39 1.41 1.37 1.32 1.29 1.32 1.34 1.32 1.26 1.21 1.16 1.10 1.05 1.05 1.06 1.05 1.03 1.06 1.08 1.05 1.03 1.03
0.62 0.55 0.63 0.76 0.85 0.87 0.89 0.86 0.82 0.82 0.82 0.81 0.79 0.76 0.74 0.72 0.74 0.81 0.78 0.78 0.82 0.83 0.82 0.82 0.81 0.77 0.80 0.80 0.84 0.83 0.86 0.89 0.90 0.90 0.92 0.93 0.92 0.91 0.91 0.92 0.95 0.95 0.96 0.97 1.00 1.01 1.07 1.07 1.08 1.08 1.03 0.95 0.96 0.96 1.05 1.12 1.13 1.15 1.20 1.25 1.27 1.26 1.28 1.32 1.35 1.38 1.35 1.30 1.28 1.31 1.32 1.31 1.27 1.26 1.21 1.17 1.11 1.08 1.05 1.04 1.06 1.07 1.08 1.08 1.03 1.02 1.06
0.82 0.83 0.85 0.90 0.90 0.88 0.87 0.89 0.88 0.83 0.81 0.81 0.82 0.79 0.73 0.78 0.79 0.81 0.78 0.82 0.85 0.86 0.86 0.80 0.81 0.80 0.80 0.80 0.83 0.86 0.89 0.92 0.96 1.00 0.99 0.99 0.99 0.98 0.98 0.96 0.97 0.97 0.98 0.97 0.98 0.99 1.04 1.09 1.09 1.11 1.06 0.98 0.91 0.98 1.07 1.11 1.15 1.18 1.21 1.25 1.27 1.26 1.28 1.30 1.32 1.32 1.26 1.27 1.30 1.29 1.28 1.29 1.29 1.29 1.26 1.22 1.20 1.21 1.17 1.10 1.09 1.09 1.07 1.05 1.04 1.03 1.04
0.67 0.60 0.82 0.84 0.85 0.88 0.87 0.86 0.89 0.89 0.88 0.86 0.87 0.86 0.85 0.84 0.84 0.84 0.86 0.85 0.83 0.84 0.82 0.79 0.79 0.81 0.85 0.84 0.86 0.89 0.93 0.93 0.97 1.00 0.99 0.98 0.98 0.97 0.97 1.01 1.03 1.01 0.99 0.97 0.97 0.96 0.99 1.06 1.09 1.07 1.05 1.05 1.05 1.08 1.11 1.18 1.22 1.27 1.31 1.30 1.24 1.23 1.25 1.27 1.26 1.23 1.20 1.23 1.25 1.25 1.26 1.27 1.28 1.29 1.30 1.27 1.25 1.24 1.21 1.16 1.11 1.06 1.02 0.99 1.00 1.03 0.96
0.58 0.62 0.80 0.90 0.94 0.92 0.91 0.89 0.85 0.83 0.86 0.88 0.90 0.90 0.91 0.92 0.93 0.93 0.93 0.94 0.90 0.90 0.86 0.85 0.82 0.85 0.91 0.90 0.89 0.92 0.96 1.00 1.03 1.01 1.00 0.99 0.99 1.02 1.04 1.05 1.06 1.04 1.02 0.99 1.00 1.01 1.03 1.07 1.13 1.13 1.12 1.11 1.15 1.17 1.20 1.23 1.25 1.26 1.26 1.25 1.22 1.21 1.20 1.19 1.16 1.16 1.19 1.23 1.23 1.22 1.25 1.24 1.24 1.26 1.28 1.27 1.23 1.20 1.17 1.14 1.06 1.00 0.97 0.97 0.92 0.88 0.87
0.68 0.76 0.84 0.93 0.95 0.93 0.90 0.90 0.93 0.94 0.91 0.88 0.86 0.87 0.88 0.89 0.88 0.89 0.92 0.94 0.93 0.94 0.94 0.94 0.90 0.88 0.91 0.94 0.94 0.93 0.98 1.01 1.02 1.01 0.99 0.98 0.98 1.02 1.03 1.05 1.05 1.01 1.01 1.01 1.01 1.01 1.02 1.10 1.13 1.13 1.14 1.16 1.18 1.20 1.23 1.22 1.22 1.18 1.18 1.19 1.20 1.18 1.18 1.15 1.13 1.17 1.20 1.23 1.22 1.21 1.24 1.25 1.25 1.24 1.21 1.20 1.18 1.17 1.17 1.16 1.12 1.06 1.02 0.96 0.92 0.92 0.92
0.57 0.60 0.69 0.83 0.69 0.72 0.85 0.91 0.96 0.96 0.97 0.92 0.89 0.87 0.87 0.87 0.86 0.87 0.85 0.86 0.90 0.90 0.92 0.91 0.90 0.90 0.95 0.99 0.97 0.94 0.96 1.00 1.02 1.01 0.99 0.97 0.96 0.97 1.02 1.05 1.04 1.03 1.03 1.04 1.04 1.05 1.06 1.11 1.13 1.13 1.13 1.14 1.15 1.15 1.17 1.17 1.20 1.17 1.17 1.15 1.11 1.09 1.09 1.08 1.11 1.16 1.19 1.22 1.24 1.23 1.23 1.24 1.17 1.15 1.14 1.07 1.02 0.99 1.01 1.03 1.04 1.03 1.00 0.97 0.96 0.94 0.93
0.57 0.72 0.79 0.83 0.83 0.84 0.89 0.94 0.96 0.98 0.99 0.97 0.92 0.88 0.89 0.91 0.92 0.91 0.87 0.86 0.87 0.87 0.89 0.92 0.90 0.90 0.92 0.95 0.96 0.93 0.95 0.97 0.99 0.99 0.96 0.94 0.93 0.95 0.98 0.98 0.99 1.00 1.03 1.07 1.09 1.07 1.11 1.15 1.14 1.14 1.14 1.14 1.14 1.16 1.16 1.18 1.18 1.17 1.12 1.04 1.02 1.01 1.03 1.05 1.11 1.14 1.16 1.18 1.22 1.25 1.25 1.21 1.13 1.05 0.98 0.96 0.98 0.97 0.95 0.95 0.95 0.95 0.93 0.89 0.88 0.91 0.94
0.79 0.85 0.87 0.86 0.82 0.79 0.86 0.95 0.98 0.99 1.02 1.00 0.95 0.93 0.92 0.91 0.92 0.92 0.92 0.91 0.88 0.86 0.87 0.88 0.89 0.88 0.89 0.93 0.94 0.90 0.91 0.92 0.92 0.94 0.98 0.99 0.99 1.00 1.02 1.01 1.01 1.02 1.03 1.05 1.05 1.07 1.11 1.13 1.15 1.14 1.13 1.17 1.19 1.19 1.19 1.17 1.15 1.11 1.08 1.03 1.00 0.99 1.01 1.06 1.08 1.10 1.11 1.14 1.16 1.17 1.16 1.15 1.11 1.04 0.95 0.89 0.89 0.91 0.91 0.90 0.92 0.89 0.84 0.85 0.88 0.90 0.92
0.76 0.89 0.93 0.92 0.91 0.91 0.93 0.94 0.94 0.96 1.00 0.99 0.95 0.97 0.97 0.94 0.90 0.90 0.87 0.86 0.87 0.85 0.84 0.83 0.86 0.89 0.88 0.88 0.88 0.86 0.85 0.86 0.87 0.87 0.89 0.93 0.97 0.99 0.99 1.00 1.00 0.99 1.02 1.05 1.10 1.11 1.13 1.12 1.12 1.11 1.09 1.14 1.17 1.16 1.16 1.14 1.11 1.08 1.07 1.04 1.02 1.02 1.02 1.03 1.05 1.05 1.05 1.06 1.09 1.11 1.10 1.09 1.08 1.03 0.95 0.89 0.83 0.80 0.84 0.88 0.87 0.84 0.87 0.91 0.93 0.95 0.98
0.94 0.92 0.92 0.94 0.93 0.91 0.94 0.93 0.92 0.92 0.92 0.94 0.92 0.95 0.94 0.92 0.93 0.96 0.95 0.92 0.89 0.88 0.86 0.86 0.87 0.89 0.90 0.86 0.85 0.86 0.85 0.83 0.83 0.84 0.82 0.80 0.83 0.89 0.95 0.97 1.00 1.01 1.03 1.06 1.09 1.12 1.12 1.11 1.10 1.09 1.07 1.10 1.11 1.12 1.13 1.11 1.08 1.05 1.03 1.01 1.02 1.01 1.00 1.00 1.00 1.00 1.00 1.02 1.03 1.05 1.06 1.03 1.01 1.00 0.97 0.90 0.82 0.79 0.78 0.79 0.81 0.87 0.96 1.01 1.02 1.03 1.04
0.97 0.97 0.91 0.85 0.84 0.86 0.90 0.86 0.84 0.90 0.89 0.90 0.91 0.94 0.93 0.88 0.88 0.88 0.93 0.93 0.87 0.86 0.82 0.82 0.84 0.82 0.81 0.80 0.79 0.78 0.77 0.80 0.80 0.79 0.78 0.76 0.75 0.78 0.87 0.98 1.02 1.03 1.02 1.00 1.03 1.09 1.10 1.10 1.09 1.07 1.04 1.05 1.09 1.11 1.11 1.10 1.07 1.04 1.03 1.02 1.02 1.02 1.02 1.03 1.03 1.03 1.02 0.99 0.95 0.95 0.97 0.99 1.00 0.96 0.91 0.88 0.84 0.81 0.80 0.82 0.88 0.91 0.92 0.97 1.02 1.03 1.00
0.95 0.95 0.92 0.81 0.79 0.82 0.86 0.91 0.92 0.91 0.88 0.87 0.88 0.87 0.84 0.84 0.79 0.76 0.76 0.77 0.76 0.77 0.77 0.78 0.75 0.73 0.71 0.73 0.72 0.70 0.70 0.68 0.69 0.72 0.72 0.72 0.73 0.74 0.79 0.88 0.95 0.96 0.96 0.96 0.99 1.04 1.06 1.07 1.04 0.98 0.98 1.05 1.10 1.12 1.12 1.12 1.07 1.02 1.01 1.01 1.02 1.04 1.06 1.04 1.01 0.98 0.97 0.98 0.98 0.97 0.98 1.03 1.05 0.99 0.96 0.91 0.88 0.89 0.91 0.91 0.90 0.88 0.90 0.95 0.95 0.95 0.94
0.96 0.98 0.98 0.96 0.94 0.93 0.92 0.90 0.88 0.87 0.88 0.91 0.86 0.82 0.80 0.75 0.75 0.76 0.76 0.75 0.74 0.74 0.71 0.71 0.71 0.68 0.66 0.67 0.67 0.66 0.66 0.65 0.65 0.65 0.68 0.71 0.70 0.68 0.69 0.72 0.77 0.85 0.88 0.90 0.95 1.02 1.03 1.03 1.00 0.95 0.96 1.03 1.07 1.11 1.11 1.06 0.99 0.99 1.02 1.04 1.06 1.05 1.01 0.99 0.99 1.00 1.01 1.01 1.01 1.02 1.05 1.11 1.09 1.02 0.96 0.95 0.94 0.92 0.89 0.87 0.88 0.89 0.89 0.89 0.88 0.88 0.91
0.96 0.96 0.96 0.96 0.96 0.96 0.92 0.88 0.85 0.84 0.84 0.83 0.82 0.82 0.81 0.78 0.74 0.73 0.72 0.70 0.70 0.68 0.69 0.69 0.67 0.64 0.64 0.62 0.62 0.62 0.60 0.59 0.59 0.60 0.61 0.63 0.64 0.63 0.61 0.63 0.65 0.69 0.76 0.80 0.88 0.97 1.00 0.99 0.97 0.92 0.93 1.00 1.05 1.08 1.05 1.04 1.04 1.02 0.98 1.00 1.02 0.97 0.95 0.98 1.00 1.02 1.01 1.02 1.05 1.06 1.08 1.09 1.07 1.03 0.99 0.95 0.91 0.87 0.87 0.89 0.90 0.87 0.85 0.86 0.86 0.86 0.86
0.90 0.92 0.93 0.91 0.89 0.89 0.88 0.86 0.84 0.84 0.84 0.82 0.80 0.77 0.74 0.72 0.69 0.68 0.68 0.69 0.67 0.65 0.66 0.65 0.64 0.63 0.62 0.60 0.60 0.60 0.59 0.57 0.55 0.53 0.51 0.51 0.52 0.54 0.54 0.56 0.50 0.48 0.55 0.68 0.79 0.91 0.97 0.98 0.97 0.97 1.02 1.04 1.07 1.10 1.11 1.10 1.08 1.05 0.98 0.95 0.95 0.95 0.99 1.01 1.03 1.05 1.07 1.06 1.04 1.03 1.03 1.02 1.01 0.99 0.97 0.95 0.93 0.94 0.94 0.94 0.90 0.88 0.87 0.86 0.84 0.82 0.83
0.86 0.86 0.85 0.85 0.84 0.83 0.82 0.82 0.77 0.74 0.74 0.75 0.71 0.66 0.66 0.65 0.62 0.62 0.62 0.61 0.61 0.61 0.61 0.59 0.57 0.56 0.57 0.57 0.56 0.53 0.50 0.48 0.46 0.44 0.44 0.45 0.47 0.49 0.51 0.51 0.51 0.50 0.54 0.64 0.75 0.85 0.94 1.00 0.99 1.03 1.06 1.06 1.10 1.11 1.11 1.10 1.09 1.02 0.95 0.93 0.92 0.93 0.97 1.01 1.03 1.03 1.05 1.04 1.05 1.06 1.07 1.06 1.05 1.07 1.04 1.00 0.98 0.96 0.94 0.91 0.88 0.87 0.84 0.80 0.79 0.80 0.86
0.78 0.75 0.75 0.76 0.76 0.76 0.74 0.75 0.73 0.72 0.73 0.71 0.71 0.70 0.69 0.67 0.64 0.62 0.60 0.58 0.56 0.56 0.53 0.52 0.52 0.52 0.52 0.52 0.51 0.49 0.47 0.46 0.46 0.46 0.45 0.45 0.46 0.50 0.52 0.51 0.51 0.51 0.53 0.60 0.71 0.83 0.93 0.99 1.05 1.11 1.10 1.11 1.11 1.10 1.09 1.06 1.00 0.96 0.95 0.94 0.97 1.00 1.01 1.02 1.02 1.01 1.03 1.03 1.02 1.02 1.06 1.08 1.11 1.08 1.03 0.99 0.98 0.98 0.95 0.91 0.88 0.86 0.83 0.80 0.81 0.86 0.90
0.71 0.70 0.72 0.74 0.74 0.70 0.69 0.68 0.69 0.67 0.66 0.65 0.63 0.61 0.58 0.56 0.55 0.55 0.55 0.55 0.53 0.52 0.52 0.53 0.55 0.56 0.56 0.54 0.53 0.52 0.51 0.48 0.46 0.45 0.47 0.48 0.50 0.53 0.56 0.53 0.52 0.54 0.57 0.63 0.67 0.77 0.90 1.00 1.06 1.12 1.14 1.14 1.15 1.16 1.13 1.08 1.02 0.99 0.97 1.03 1.07 1.06 1.04 1.02 1.05 1.06 1.06 1.08 1.09 1.11 1.13 1.11 1.08 1.05 1.05 1.04 1.02 0.98 0.93 0.89 0.87 0.85 0.82 0.83 0.86 0.90 0.92
0.78 0.76 0.78 0.77 0.77 0.74 0.70 0.65 0.62 0.60 0.57 0.54 0.54 0.53 0.53 0.53 0.52 0.52 0.54 0.52 0.50 0.52 0.55 0.57 0.57 0.58 0.57 0.57 0.56 0.55 0.55 0.53 0.53 0.53 0.53 0.55 0.56 0.57 0.58 0.57 0.54 0.54 0.56 0.61 0.67 0.73 0.85 0.98 1.05 1.09 1.13 1.17 1.21 1.24 1.26 1.21 1.16 1.11 1.08 1.09 1.07 1.05 1.03 1.03 1.05 1.06 1.06 1.08 1.12 1.12 1.11 1.09 1.06 1.05 1.03 1.00 0.96 0.94 0.91 0.89 0.88 0.87 0.86 0.85 0.87 0.88 0.89
0.76 0.74 0.74 0.73 0.72 0.71 0.67 0.64 0.62 0.60 0.57 0.55 0.54 0.53 0.52 0.53 0.54 0.54 0.54 0.55 0.59 0.59 0.59 0.58 0.59 0.60 0.59 0.58 0.57 0.57 0.56 0.57 0.58 0.59 0.61 0.61 0.64 0.64 0.63 0.62 0.62 0.58 0.56 0.59 0.68 0.75 0.83 0.89 0.97 1.02 1.08 1.11 1.11 1.15 1.17 1.16 1.16 1.15 1.15 1.11 1.06 1.00 1.00 1.00 1.03 1.03 1.05 1.08 1.09 1.07 1.03 1.01 1.00 0.99 0.98 0.95 0.93 0.91 0.90 0.89 0.89 0.88 0.87 0.87 0.86 0.86 0.87
0.76 0.72 0.71 0.70 0.69 0.67 0.64 0.62 0.61 0.58 0.56 0.55 0.54 0.53 0.53 0.56 0.58 0.61 0.63 0.63 0.64 0.63 0.62 0.61 0.60 0.58 0.58 0.61 0.62 0.63 0.63 0.62 0.63 0.63 0.65 0.68 0.70 0.71 0.68 0.67 0.68 0.68 0.65 0.58 0.69 0.78 0.83 0.87 0.91 0.94 0.96 1.00 1.02 1.03 1.04 1.02 1.02 1.04 1.03 0.99 0.96 0.95 0.97 0.98 0.98 1.04 1.05 1.07 1.03 1.00 0.99 0.98 0.97 0.95 0.93 0.90 0.89 0.89 0.89 0.88 0.88 0.88 0.87 0.86 0.85 0.85 0.83
0.72 0.71 0.68 0.65 0.64 0.63 0.62 0.62 0.62 0.61 0.60 0.58 0.59 0.60 0.60 0.62 0.64 0.65 0.66 0.67 0.66 0.66 0.65 0.63 0.62 0.63 0.64 0.65 0.64 0.63 0.64 0.66 0.66 0.67 0.69 0.72 0.75 0.72 0.73 0.73 0.73 0.76 0.71 0.70 0.80 0.84 0.87 0.89 0.90 0.92 0.93 0.94 0.95 0.97 0.96 0.94 0.89 0.88 0.88 0.88 0.92 0.97 1.02 1.04 1.03 1.05 1.03 1.00 0.99 0.99 0.98 0.95 0.90 0.87 0.86 0.85 0.85 0.84 0.84 0.84 0.85 0.84 0.84 0.83 0.82 0.82 0.81
0.68 0.68 0.65 0.64 0.63 0.61 0.60 0.62 0.64 0.63 0.62 0.59 0.60 0.63 0.66 0.67 0.68 0.70 0.71 0.71 0.73 0.73 0.70 0.68 0.69 0.68 0.66 0.65 0.64 0.66 0.67 0.69 0.70 0.71 0.72 0.74 0.79 0.76 0.75 0.80 0.87 0.91 0.95 0.99 0.95 0.90 0.88 0.87 0.88 0.88 0.90 0.93 0.95 0.94 0.93 0.92 0.90 0.87 0.90 1.00 1.04 1.07 1.08 1.07 1.02 1.00 0.99 0.99 0.97 0.95 0.92 0.88 0.85 0.82 0.81 0.79 0.79 0.78 0.79 0.79 0.79 0.79 0.78 0.78 0.78 0.77 0.78
0.64 0.64 0.63 0.63 0.61 0.61 0.60 0.60 0.62 0.63 0.65 0.66 0.65 0.64 0.67 0.67 0.68 0.71 0.73 0.73 0.75 0.78 0.76 0.76 0.72 0.68 0.68 0.68 0.67 0.67 0.72 0.75 0.75 0.75 0.74 0.77 0.78 0.77 0.79 0.86 0.93 0.97 1.00 1.00 0.99 0.97 0.96 0.95 0.92 0.87 0.89 0.95 1.01 1.04 1.09 1.13 1.12 1.11 1.10 1.10 1.08 1.06 1.03 1.00 0.97 0.92 0.90 0.89 0.87 0.85 0.83 0.80 0.78 0.75 0.73 0.71 0.71 0.72 0.72 0.73 0.72 0.72 0.72 0.73 0.73 0.74 0.74
0.66 0.66 0.66 0.65 0.64 0.65 0.64 0.64 0.64 0.67 0.68 0.69 0.70 0.71 0.72 0.70 0.70 0.71 0.71 0.73 0.76 0.79 0.80 0.80 0.78 0.76 0.76 0.75 0.75 0.76 0.78 0.79 0.79 0.78 0.77 0.76 0.75 0.76 0.76 0.79 0.91 0.99 0.97 0.97 1.00 1.03 1.05 1.05 1.05 1.02 1.04 1.10 1.11 1.09 1.07 1.05 1.04 1.03 1.02 0.99 0.96 0.92 0.91 0.89 0.87 0.84 0.80 0.79 0.77 0.74 0.70 0.69 0.66 0.65 0.66 0.66 0.66 0.66 0.67 0.66 0.66 0.66 0.65 0.65 0.66 0.68 0.69
0.66 0.67 0.67 0.66 0.66 0.66 0.67 0.69 0.70 0.69 0.69 0.72 0.72 0.73 0.74 0.74 0.72 0.70 0.73 0.77 0.77 0.78 0.79 0.80 0.81 0.80 0.80 0.80 0.79 0.78 0.78 0.79 0.82 0.83 0.84 0.80 0.76 0.75 0.76 0.82 0.98 1.03 1.06 1.04 0.99 0.97 0.99 1.03 1.07 1.08 1.09 1.08 1.06 1.04 1.02 1.00 0.97 0.95 0.94 0.93 0.91 0.89 0.85 0.81 0.77 0.74 0.74 0.71 0.69 0.67 0.65 0.64 0.64 0.64 0.64 0.63 0.63 0.62 0.62 0.62 0.62 0.62 0.62 0.62 0.63 0.65 0.66
0.67 0.67 0.67 0.67 0.68 0.69 0.70 0.70 0.70 0.70 0.71 0.73 0.75 0.75 0.76 0.76 0.75 0.75 0.75 0.76 0.76 0.76 0.76 0.76 0.77 0.78 0.78 0.78 0.77 0.75 0.76 0.81 0.82 0.82 0.84 0.87 0.91 0.94 0.90 0.91 0.99 1.01 1.01 0.99 0.98 1.00 1.00 1.00 1.01 1.02 1.03 1.02 1.00 0.96 0.92 0.89 0.88 0.87 0.85 0.83 0.81 0.77 0.72 0.69 0.68 0.66 0.66 0.65 0.64 0.64 0.64 0.64 0.63 0.62 0.61 0.60 0.59 0.58 0.57 0.56 0.56 0.59 0.61 0.64 0.65 0.65 0.66
0.68 0.69 0.68 0.68 0.67 0.69 0.69 0.69 0.69 0.70 0.70 0.71 0.76 0.77 0.77 0.76 0.75 0.74 0.73 0.73 0.74 0.74 0.74 0.73 0.73 0.74 0.74 0.76 0.76 0.74 0.75 0.78 0.78 0.80 0.79 0.80 0.84 0.91 0.96 0.96 0.98 0.99 0.97 0.96 0.97 0.97 0.97 0.98 0.97 0.97 0.96 0.95 0.94 0.91 0.88 0.85 0.81 0.78 0.73 0.69 0.65 0.61 0.58 0.57 0.58 0.58 0.58 0.59 0.59 0.59 0.59 0.60 0.58 0.57 0.54 0.51 0.48 0.46 0.45 0.43 0.44 0.45 0.47 0.52 0.58 0.63 0.65
0.66 0.66 0.65 0.65 0.66 0.65 0.65 0.65 0.66 0.66 0.70 0.73 0.73 0.73 0.73 0.72 0.73 0.73 0.72 0.71 0.71 0.72 0.73 0.72 0.72 0.73 0.74 0.74 0.75 0.77 0.80 0.82 0.81 0.80 0.74 0.72 0.72 0.76 0.89 0.91 0.92 0.93 0.92 0.91 0.92 0.91 0.92 0.93 0.92 0.91 0.90 0.87 0.84 0.80 0.77 0.74 0.69 0.65 0.63 0.60 0.58 0.57 0.56 0.56 0.55 0.55 0.56 0.56 0.57 0.58 0.57 0.56 0.53 0.50 0.48 0.46 0.44 0.42 0.41 0.40 0.40 0.41 0.41 0.43 0.47 0.53 0.59
0.64 0.65 0.65 0.64 0.63 0.63 0.64 0.65 0.67 0.70 0.70 0.70 0.70 0.70 0.71 0.71 0.70 0.71 0.70 0.68 0.67 0.68 0.70 0.72 0.72 0.72 0.73 0.73 0.75 0.78 0.79 0.80 0.83 0.84 0.84 0.81 0.76 0.80 0.88 0.88 0.89 0.88 0.88 0.86 0.85 0.84 0.86 0.86 0.84 0.83 0.81 0.79 0.76 0.74 0.72 0.70 0.68 0.66 0.65 0.63 0.61 0.59 0.56 0.55 0.55 0.55 0.55 0.55 0.54 0.53 0.52 0.49 0.48 0.46 0.45 0.44 0.43 0.42 0.41 0.39 0.39 0.40 0.41 0.42 0.43 0.47 0.53
0.63 0.63 0.63 0.63 0.63 0.63 0.64 0.64 0.64 0.63 0.62 0.60 0.57 0.58 0.64 0.67 0.67 0.68 0.68 0.68 0.67 0.66 0.66 0.68 0.69 0.70 0.72 0.71 0.71 0.69 0.69 0.71 0.73 0.77 0.79 0.81 0.83 0.82 0.82 0.83 0.84 0.86 0.86 0.85 0.84 0.84 0.85 0.84 0.83 0.83 0.81 0.78 0.75 0.73 0.70 0.68 0.65 0.64 0.61 0.60 0.60 0.58 0.56 0.56 0.55 0.54 0.53 0.52 0.51 0.50 0.49 0.48 0.46 0.46 0.45 0.44 0.44 0.43 0.42 0.41 0.40 0.40 0.40 0.41 0.42 0.44 0.48
0.64 0.63 0.63 0.63 0.63 0.63 0.63 0.60 0.58 0.55 0.54 0.53 0.55 0.56 0.58 0.59 0.60 0.61 0.62 0.63 0.63 0.62 0.61 0.62 0.63 0.66 0.67 0.67 0.68 0.70 0.69 0.66 0.61 0.66 0.73 0.74 0.76 0.78 0.79 0.81 0.80 0.81 0.82 0.82 0.81 0.81 0.82 0.81 0.81 0.80 0.79 0.78 0.74 0.70 0.67 0.65 0.64 0.62 0.60 0.59 0.56 0.55 0.55 0.55 0.54 0.54 0.53 0.53 0.52 0.50 0.49 0.48 0.47 0.47 0.46 0.46 0.45 0.45 0.43 0.41 0.39 0.39 0.38 0.39 0.40 0.44 0.47
0.66 0.65 0.64 0.64 0.62 0.60 0.60 0.58 0.56 0.54 0.54 0.56 0.56 0.56 0.57 0.56 0.55 0.54 0.53 0.54 0.53 0.53 0.53 0.54 0.53 0.53 0.56 0.58 0.59 0.60 0.63 0.67 0.62 0.59 0.68 0.71 0.71 0.72 0.74 0.75 0.76 0.78 0.79 0.78 0.77 0.77 0.77 0.77 0.79 0.79 0.78 0.78 0.74 0.68 0.64 0.63 0.63 0.61 0.60 0.58 0.56 0.55 0.55 0.56 0.56 0.56 0.56 0.55 0.54 0.53 0.52 0.51 0.50 0.49 0.48 0.47 0.46 0.46 0.44 0.42 0.40 0.39 0.37 0.37 0.38 0.43 0.47
0.66 0.66 0.63 0.61 0.60 0.59 0.57 0.56 0.56 0.56 0.58 0.58 0.56 0.57 0.57 0.56 0.51 0.49 0.51 0.51 0.51 0.51 0.50 0.49 0.50 0.50 0.50 0.51 0.52 0.53 0.54 0.54 0.57 0.60 0.61 0.62 0.64 0.65 0.66 0.69 0.71 0.72 0.72 0.71 0.71 0.72 0.74 0.74 0.75 0.76 0.77 0.77 0.73 0.69 0.65 0.62 0.61 0.60 0.60 0.59 0.59 0.59 0.58 0.58 0.58 0.58 0.58 0.57 0.56 0.56 0.56 0.55 0.55 0.54 0.52 0.51 0.49 0.47 0.44 0.42 0.41 0.39 0.37 0.36 0.37 0.40 0.45
0.66 0.64 0.62 0.62 0.61 0.59 0.59 0.57 0.55 0.56 0.56 0.55 0.56 0.57 0.56 0.53 0.50 0.50 0.50 0.50 0.50 0.48 0.46 0.46 0.48 0.50 0.50 0.50 0.52 0.53 0.54 0.55 0.55 0.55 0.55 0.55 0.56 0.55 0.56 0.57 0.59 0.62 0.64 0.66 0.67 0.69 0.71 0.72 0.73 0.75 0.75 0.76 0.75 0.72 0.69 0.67 0.65 0.64 0.63 0.62 0.62 0.61 0.61 0.60 0.60 0.60 0.60 0.59 0.59 0.58 0.58 0.57 0.57 0.56 0.55 0.54 0.52 0.48 0.45 0.42 0.41 0.39 0.38 0.38 0.38 0.40 0.43
0.66 0.65 0.64 0.62 0.60 0.60 0.59 0.58 0.56 0.56 0.56 0.56 0.56 0.55 0.54 0.53 0.51 0.50 0.50 0.51 0.50 0.47 0.47 0.45 0.43 0.47 0.49 0.49 0.49 0.51 0.53 0.53 0.54 0.55 0.56 0.57 0.57 0.57 0.58 0.56 0.56 0.55 0.56 0.57 0.58 0.61 0.64 0.67 0.70 0.72 0.72 0.73 0.73 0.73 0.72 0.71 0.69 0.68 0.67 0.68 0.67 0.67 0.67 0.66 0.64 0.63 0.62 0.62 0.61 0.60 0.59 0.59 0.58 0.57 0.56 0.56 0.54 0.50 0.46 0.44 0.42 0.41 0.40 0.40 0.40 0.40 0.40
Wind_Speed
34 34 33 32 32 34 35 35 35 34 34 36 38 40 39 36 37 38 33 31 32 31 28 27 25 23 22 21 21 21 20 20 19 19 19 20 20 21 22 21 20 19 18 18 18 18 18 19 19 19 19 19 19 19 20 20 21 22 22 22 22 22 22 22 22 23 23 24 26 27 28 29 29 29 28 28 29 29 28 26 25 25 24 24 24 24 25
33 33 33 32 33 34 34 36 35 33 33 35 37 38 37 37 39 38 33 32 33 31 29 27 25 24 23 22 22 21 20 20 20 19 20 20 21 23 24 23 21 20 19 19 18 18 18 19 20 20 19 19 19 19 19 20 20 21 21 21 21 22 22 22 22 22 22 23 24 26 27 28 28 28 28 27 27 27 27 27 26 24 23 23 23 23 24
30 31 31 31 33 34 35 37 37 35 34 34 34 35 34 34 35 34 32 33 33 31 29 27 24 23 22 21 21 22 21 21 20 19 20 20 21 23 24 24 22 20 20 19 18 18 19 19 20 20 19 18 19 19 19 20 20 20 20 21 21 21 21 22 22 22 22 23 23 24 25 26 27 27 27 27 27 27 28 28 27 25 24 24 24 24 24
26 27 28 30 31 33 35 38 38 37 35 34 33 32 32 33 33 31 31 32 32 30 27 26 24 23 23 23 23 22 22 21 20 21 21 21 21 22 23 23 22 22 21 20 19 19 19 19 20 20 20 19 19 19 19 20 20 20 21 21 21 21 22 22 22 22 22 23 24 24 24 24 25 25 25 26 26 26 26 27 28 28 28 27 26 25 25
22 22 24 27 28 29 32 36 37 37 36 35 34 33 32 32 32 30 31 31 29 26 24 25 26 25 24 23 22 22 22 21 21 22 21 21 21 21 22 22 22 22 22 21 20 19 19 19 20 20 20 20 20 20 20 20 20 20 21 22 22 22 22 22 22 22 22 23 23 23 23 23 24 25 25 25 24 24 25 26 27 29 30 30 29 27 26
20 20 20 23 25 27 29 31 33 35 37 37 37 35 34 33 32 30 30 30 27 24 24 25 25 24 23 23 22 22 22 22 22 22 22 21 20 20 20 20 21 22 22 21 20 20 19 19 19 20 20 20 20 19 19 20 20 21 22 22 22 22 22 22 22 22 23 22 21 21 22 23 23 23 23 23 23 24 26 26 25 26 28 31 30 28 27
19 18 18 20 23 25 26 26 28 32 34 36 37 35 33 32 32 30 30 30 28 25 24 24 22 22 22 22 22 22 23 23 22 23 22 22 21 21 20 20 21 22 22 21 21 21 20 20 20 19 19 19 18 17 17 19 20 21 22 22 22 23 23 23 23 22 22 22 21 22 23 23 23 23 23 23 24 25 26 26 25 24 25 28 29 27 26
18 18 19 19 19 21 23 24 26 28 30 32 33 32 32 33 32 31 31 30 27 25 24 23 22 22 22 22 21 21 23 24 23 22 22 22 22 22 22 22 22 22 22 21 21 21 21 20 20 18 18 17 16 16 16 17 18 19 20 20 21 22 22 22 22 22 23 23 23 24 24 23 24 25 25 25 26 25 25 26 26 25 24 26 26 25 24
17 18 19 19 19 20 22 23 25 26 28 30 31 32 32 32 32 31 30 29 27 25 24 24 23 23 23 22 21 20 22 24 24 23 23 22 22 22 23 22 21 22 22 21 21 21 20 20 19 17 16 16 16 16 17 17 17 17 18 18 19 20 21 21 22 22 23 24 24 24 25 25 26 26 26 26 25 25 26 26 26 24 24 23 23 23 23
16 17 17 18 19 20 21 21 22 24 26 28 30 31 30 30 31 31 30 29 28 26 25 24 24 24 23 23 22 21 21 23 23 23 22 22 22 22 22 21 21 21 21 21 21 21 20 19 18 17 16 16 16 17 17 17 17 17 17 18 19 20 20 21 22 23 23 24 25 25 26 26 25 24 24 25 25 25 26 26 25 23 22 21 21 22 22
18 17 17 17 18 18 18 19 20 22 24 26 28 30 30 29 29 29 29 28 28 27 25 24 24 24 23 23 22 21 20 21 21 22 21 20 20 20 20 21 21 21 20 20 21 22 21 20 18 17 17 16 17 17 18 18 18 18 19 19 19 20 20 21 22 23 24 25 26 26 26 24 23 23 23 23 23 24 24 24 23 21 21 21 21 21 21
19 18 18 18 18 17 16 17 19 20 21 23 26 28 28 27 26 27 27 27 26 25 24 23 23 23 23 22 21 20 19 19 19 19 18 18 18 19 19 20 20 19 19 20 21 21 20 19 18 18 17 17 17 18 18 19 20 20 21 21 21 21 21 22 23 24 25 25 25 25 24 23 22 23 23 23 23 23 23 22 21 21 20 20 19 20 21
19 18 17 17 17 16 15 17 18 18 19 22 25 26 24 24 25 24 25 26 25 23 22 21 21 21 20 20 19 18 17 16 16 16 16 16 16 18 18 19 18 19 19 20 20 20 19 18 18 18 18 18 18 18 18 19 20 21 22 22 22 22 23 24 25 26 25 25 24 23 22 22 23 23 23 23 23 22 21 20 20 19 18 18 18 19 20
19 17 17 17 17 15 14 15 16 17 19 21 23 23 22 22 22 22 22 23 22 21 20 20 20 20 17 16 15 14 13 13 13 14 14 15 16 16 17 17 17 18 19 19 19 19 19 18 18 18 19 18 18 19 20 21 22 23 23 23 23 24 24 25 26 26 26 25 23 23 23 23 23 23 22 22 21 20 20 19 18 17 17 17 17 17 17
18 16 16 16 16 15 13 14 15 16 17 19 20 22 21 20 20 20 20 20 20 20 20 20 19 18 16 14 13 12 12 12 12 13 14 15 16 16 16 16 16 17 18 18 18 19 19 19 19 19 19 19 19 20 21 23 24 25 26 26 26 26 27 27 28 27 26 25 24 24 23 23 23 22 22 21 19 19 19 18 18 17 17 16 16 17 17
17 16 15 14 15 15 14 14 15 15 15 17 19 20 20 19 19 20 20 19 19 18 19 18 18 17 16 14 13 12 11 11 11 12 12 13 14 15 15 15 15 16 18 19 19 19 19 19 20 20 20 20 21 22 23 25 27 27 28 29 29 29 29 29 28 26 25 25 24 23 22 22 21 21 21 20 18 18 19 18 18 18 17 16 17 17 18
17 16 15 13 14 14 13 13 14 14 15 17 18 19 20 20 20 21 20 20 19 18 17 17 16 16 15 14 13 13 12 12 12 12 13 13 14 14 15 16 16 17 19 19 19 19 20 20 20 21 21 21 23 24 25 27 28 28 28 28 28 28 27 26 24 24 23 23 22 22 21 20 20 20 20 18 18 18 19 19 19 18 17 17 17 18 19
17 15 13 12 12 12 12 12 13 14 16 18 18 19 20 21 21 21 20 20 19 18 17 17 16 15 15 14 14 14 14 14 14 14 15 15 15 15 16 16 17 17 18 19 19 20 20 21 21 22 22 22 23 24 25 26 27 27 26 25 24 24 23 22 21 21 21 21 20 20 20 20 20 19 18 18 18 18 19 19 19 18 18 18 18 19 21
18 15 14 14 13 12 12 13 14 15 17 18 19 20 20 20 20 19 19 19 19 18 17 16 16 15 15 15 15 16 17 17 16 16 15 15 14 15 16 16 16 17 18 19 19 20 20 21 21 22 22 22 23 24 25 25 25 24 23 22 21 20 19 18 19 19 19 19 19 19 18 18 18 18 18 18 19 19 19 19 18 18 18 19 20 21 22
20 17 16 16 15 15 14 14 15 16 17 18 19 19 19 19 19 18 18 17 17 16 16 15 15 14 14 14 14 15 16 17 17 17 15 15 15 15 15 16 16 17 18 19 19 20 20 21 21 22 22 22 23 24 24 23 21 20 19 19 18 17 17 17 18 18 18 18 18 18 18 18 18 18 18 19 19 19 19 19 19 19 19 20 21 22 22
20 19 18 17 15 15 15 16 16 16 17 19 20 19 19 18 18 18 17 16 16 15 15 15 14 14 14 13 14 14 15 15 16 16 16 15 15 16 16 17 18 18 19 20 20 20 20 21 22 22 22 23 23 23 21 20 19 18 18 17 17 17 17 18 18 18 18 18 18 18 18 18 19 18 18 19 18 18 18 19 20 20 21 21 22 22 22
22 22 21 18 16 15 16 17 17 17 17 18 19 18 18 18 17 17 16 15 15 14 14 15 15 14 14 13 14 14 15 15 15 16 16 17 17 17 18 19 19 19 20 21 21 22 22 23 23 23 23 23 23 21 20 19 18 18 18 18 17 18 18 18 18 19 19 19 19 19 19 19 19 19 18 18 18 18 18 18 19 20 20 21 22 22 23
20 22 23 20 16 16 18 18 17 17 17 17 17 17 17 17 16 15 15 15 14 14 14 14 14 14 15 15 14 14 15 15 16 16 17 18 18 19 19 19 20 20 21 22 23 23 24 25 25 24 24 23 22 21 20 19 19 19 19 18 18 18 18 18 18 18 19 19 19 19 19 18 18 18 18 18 18 18 19 19 19 19 20 21 22 23 23
18 20 22 20 17 17 19 18 18 17 17 16 16 15 15 15 15 14 13 13 14 14 14 14 14 14 15 15 15 15 15 16 16 17 17 18 19 20 20 21 21 22 22 23 24 24 24 24 24 24 23 22 21 20 19 19 19 19 19 19 18 18 17 17 18 18 18 18 18 18 18 18 18 18 18 18 19 19 19 20 20 20 21 22 22 22 23
18 19 21 20 18 18 19 18 18 18 18 17 16 16 15 15 15 15 14 13 13 13 14 14 14 15 15 15 16 16 16 17 17 18 19 19 20 21 22 23 24 24 24 25 25 24 23 23 23 22 22 21 20 19 19 19 19 19 19 18 18 18 17 17 18 18 18 18 18 18 18 19 19 19 19 20 20 20 21 21 21 21 22 22 22 22 22
18 19 20 19 18 17 18 18 17 17 17 17 17 17 16 15 14 15 14 13 13 14 14 14 15 15 16 16 16 17 17 18 19 20 20 21 21 23 24 25 25 25 25 24 23 23 23 22 22 22 21 21 20 19 19 19 18 18 18 17 17 17 17 17 17 18 18 18 18 18 19 20 20 21 22 22 22 22 22 22 22 22 22 23 23 23 23
17 18 18 18 17 16 16 16 16 15 15 16 16 17 16 14 14 14 13 13 13 13 13 13 14 15 15 15 16 16 17 18 19 19 20 20 21 22 23 23 23 23 22 22 22 22 22 22 21 21 20 20 19 19 19 18 18 17 17 17 17 17 17 17 17 17 18 18 18 19 20 21 22 22 22 22 22 22 22 21 22 22 22 22 22 23 23
16 16 16 16 16 15 15 15 15 15 14 14 15 15 14 14 13 13 12 12 12 13 13 13 14 15 15 16 16 17 17 18 19 19 19 20 20 21 21 21 21 20 20 21 21 21 21 21 21 20 20 20 20 19 19 18 17 17 17 18 18 18 18 19 19 19 20 21 21 21 22 22 22 21 21 21 21 21 21 21 22 22 22 22 23 23 24
15 16 16 16 16 15 14 14 14 13 13 13 13 12 12 12 11 11 11 12 12 13 13 13 14 14 14 15 15 16 16 17 18 19 20 20 21 21 21 21 21 20 20 20 20 21 21 21 21 20 20 20 20 19 19 18 18 18 18 18 19 20 20 20 20 21 22 22 22 22 21 21 21 21 20 20 20 21 22 22 23 23 23 23 23 24 24
15 15 16 16 15 14 13 12 12 12 12 12 11 10 10 10 10 10 10 10 11 11 11 12 12 13 13 14 14 15 17 18 19 20 21 21 22 22 22 22 21 21 21 21 21 22 22 22 21 21 21 20 20 20 19 19 19 19 19 20 20 20 20 20 20 21 21 21 21 21 21 21 20 20 20 20 21 22 22 22 23 23 23 23 24 24 24
14 14 14 14 14 13 13 12 11 11 11 10 9 8 7 7 8 8 9 10 11 12 13 14 14 15 15 16 17 18 19 20 21 22 22 22 22 22 22 23 23 23 22 22 22 22 22 22 22 21 20 20 21 20 20 20 21 20 20 21 21 20 20 20 20 20 20 20 20 20 20 20 20 20 21 21 22 22 22 22 23 23 23 24 24 25 25
14 13 13 13 13 12 13 12 11 10 10 9 8 7 7 7 8 9 11 12 13 15 16 17 18 19 19 20 21 21 21 22 23 23 23 23 23 23 23 23 24 24 23 22 22 22 22 22 22 22 21 21 22 21 21 21 21 21 21 20 20 19 19 19 20 20 20 20 20 20 20 21 21 21 22 22 22 22 22 22 23 23 23 24 25 25 25
12 12 12 12 12 12 12 12 10 9 8 8 7 7 7 8 9 10 11 13 14 15 16 18 19 20 21 21 22 22 22 23 23 23 23 24 24 24 23 24 23 23 23 22 22 22 22 22 23 23 23 22 22 22 22 22 21 20 20 20 19 19 19 20 20 21 21 21 21 21 21 21 21 21 21 22 22 22 22 23 23 23 24 24 24 24 23
11 10 11 11 11 10 10 9 8 7 6 6 6 7 8 8 9 10 11 12 13 14 15 16 18 19 20 21 21 22 22 22 22 22 22 23 23 23 23 23 23 23 23 22 22 22 22 22 23 23 23 22 22 21 21 21 20 20 20 20 20 20 20 20 21 21 22 22 21 21 21 21 21 21 21 21 21 22 22 22 23 23 23 23 22 22 22
9 8 8 9 9 8 8 7 7 6 6 6 7 7 8 9 9 10 11 12 13 14 15 16 17 18 18 19 19 20 20 20 21 21 22 22 22 22 22 22 22 22 21 21 21 21 21 22 22 23 23 22 22 21 20 20 20 20 21 21 21 22 22 22 22 23 23 22 20 20 20 20 20 21 21 21 21 21 22 22 22 22 22 21 21 21 21
8 7 7 7 7 6 6 6 6 6 7 7 7 8 8 9 10 11 12 13 14 15 16 16 17 17 17 17 18 18 19 19 20 20 20 21 21 21 20 20 20 20 20 20 20 20 20 20 21 21 22 22 22 22 22 22 22 22 22 22 22 22 22 23 23 23 22 21 20 20 20 20 20 20 20 20 21 21 22 21 21 21 21 21 20 20 19
8 7 6 6 6 6 6 6 7 7 7 7 8 8 9 10 10 11 12 13 13 14 15 15 15 16 16 16 17 17 18 18 19 19 18 18 18 18 18 17 17 17 17 17 17 18 18 18 19 19 20 20 21 21 21 22 22 22 22 22 22 22 22 22 22 21 20 19 19 19 20 20 20 20 20 21 21 21 21 20 20 20 20 19 19 19 19
8 7 7 7 7 6 6 7 7 7 7 7 8 9 9 10 10 11 11 12 12 12 13 13 13 14 14 15 15 15 16 16 16 16 16 16 15 15 15 15 16 16 16 15 16 16 17 17 17 18 18 18 19 19 20 21 21 21 21 21 22 21 21 21 20 19 19 19 20 20 21 21 21 21 21 21 20 19 19 19 19 18 18 18 18 19 19
7 7 7 7 7 7 7 7 7 7 7 7 8 8 9 9 10 10 10 10 11 11 11 11 11 11 11 12 12 13 14 14 13 13 13 13 13 12 13 13 14 14 14 14 14 15 15 16 17 17 18 18 19 19 20 20 21 21 21 21 21 20 20 20 20 20 21 21 22 22 22 22 21 21 21 20 19 18 18 18 18 17 17 18 18 18 18
6 6 6 6 6 6 6 6 6 7 7 7 8 8 8 9 9 9 9 9 10 10 10 9 9 9 10 10 11 11 12 12 11 11 11 11 11 11 11 11 12 13 13 14 14 14 15 16 16 16 17 17 18 18 18 18 18 18 18 18 19 19 20 21 21 21 22 21 21 21 21 21 20 20 19 18 17 17 17 17 17 17 17 17 17 17 17
5 5 5 5 5 6 6 6 6 7 7 7 7 7 7 8 8 8 8 8 9 9 9 8 8 8 8 9 9 9 10 9 9 10 10 10 10 9 9 10 10 11 12 12 13 13 14 14 14 14 14 14 14 14 15 15 16 16 16 16 17 18 19 19 20 20 19 19 18 18 18 18 17 17 16 16 16 16 16 16 17 17 16 16 16 16 16
5 5 5 5 5 5 5 6 6 6 6 6 6 6 6 7 7 7 8 8 8 9 8 8 8 7 7 8 8 8 8 8 7 8 8 8 8 8 8 8 9 9 9 10 11 12 12 12 12 12 12 12 12 12 13 14 15 15 15 16 17 17 17 17 18 18 17 17 17 16 16 16 16 16 16 16 16 17 17 17 17 16 16 16 16 16 16
5 5 5 5 5 5 5 5 5 5 4 5 5 5 6 6 7 7 7 7 8 8 8 8 8 7 7 7 7 7 7 7 7 6 6 5 6 6 6 7 8 8 9 9 10 10 10 11 11 11 11 11 11 11 12 12 13 14 14 15 16 16 16 16 16 16 16 16 16 16 16 16 16 16 16 16 16 17 17 17 17 17 17 17 16 16 16
6 5 5 5 5 5 5 4 4 4 4 4 5 5 6 6 6 6 7 7 7 8 8 8 8 7 7 7 7 7 7 7 7 6 6 5 6 6 6 7 7 8 8 9 9 9 9 9 9 9 9 10 10 10 11 12 13 13 14 15 15 15 15 15 15 15 15 15 15 15 15 15 15 15 15 15 16 16 16 16 16 16 16 16 16 17 17
6 6 6 6 5 5 5 5 5 5 5 6 6 5 6 6 6 7 7 7 8 8 8 8 8 8 8 8 7 7 7 8 8 8 7 7 7 7 8 8 8 8 8 9 9 9 9 9 10 10 10 11 11 11 12 13 13 13 14 14 14 15 14 14 14 14 14 14 14 14 14 14 15 15 15 15 15 15 14 15 15 15 16 16 16 16 16
6 6 6 6 5 5 5 6 6 6 7 7 7 7 7 8 8 8 8 8 8 8 8 8 8 9 9 9 9 9 9 9 9 9 9 9 9 9 9 10 10 10 10 10 10 10 10 11 11 11 12 12 12 12 13 13 13 14 14 14 14 14 14 14 14 14 14 14 14 14 14 14 14 15 15 15 15 14 14 15 15 15 16 16 16 16 17
6 6 6 6 6 6 6 7 7 8 8 8 8 8 9 9 9 9 9 9 9 9 9 9 9 9 10 10 10 10 10 10 10 10 10 10 11 11 11 11 11 11 11 11 12 11 11 12 12 12 13 13 13 13 13 13 13 14 14 14 14 14 14 14 14 14 14 14 14 14 14 14 15 15 15 15 15 15 15 16 16 16 16 17 17 17 17
6 6 6 7 7 7 8 8 8 8 8 9 9 10 10 10 10 10 10 10 10 10 10 10 10 10 10 11 11 11 11 11 11 12 12 12 12 13 13 13 13 13 13 13 13 13 13 13 13 14 14 14 14 14 14 13 13 13 13 13 13 13 13 13 13 13 13 13 14 14 15 15 15 15 16 16 16 16 17 17 17 18 18 18 18 18 18
6 7 7 7 8 8 8 9 8 9 9 9 10 10 10 10 10 10 10 11 11 11 11 11 11 11 12 12 12 12 12 13 13 13 14 14 14 14 14 14 14 14 14 14 15 15 15 15 15 15 15 15 15 15 14 14 14 14 13 13 13 13 14 14 14 14 14 15 15 15 16 16 16 17 17 18 18 18 18 19 19 19 19 19 20 19 19
7 7 7 8 8 9 9 9 9 9 10 10 10 10 10 10 10 11 11 11 12 12 12 12 12 12 12 13 13 13 14 14 15 15 15 16 16 16 15 15 16 16 16 16 16 16 16 16 16 16 16 16 15 15 15 15 15 15 15 15 15 15 15 16 16 16 17 17 17 18 18 18 19 19 19 19 19 19 19 20 20 20 20 20 20 20 20
7 7 8 8 8 9 9 9 10 10 10 10 10 10 10 11 11 11 11 12 12 12 12 13 13 13 13 14 14 15 15 16 16 16 17 17 16 16 16 16 17 17 17 17 17 17 17 17 17 17 17 17 17 17 17 17 17 17 17 17 18 18 18 18 19 19 19 20 20 20 20 20 20 20 20 21 21 20 20 20 20 20 20 20 20 20 20
8 8 8 8 9 9 9 9 10 10 10 10 10 10 10 11 11 12 12 12 12 12 12 13 13 14 14 15 15 16 16 17 17 17 17 17 17 17 17 17 17 17 17 17 18 18 18 18 18 18 18 18 18 18 19 19 19 20 20 20 20 20 20 21 21 21 21 21 21 21 21 21 21 21 21 21 21 21 21 21 21 21 21 21 21 21 21
Wind_Direction
233 232 231 228 227 228 227 226 226 224 223 224 225 228 229 228 232 237 236 234 237 239 237 238 240 240 238 238 242 246 248 246 244 242 238 232 227 225 222 223 225 227 226 224 224 226 225 225 226 228 231 233 235 238 242 244 246 249 251 253 254 256 257 259 261 262 263 263 263 264 264 264 266 268 270 272 271 269 271 276 277 274 274 277 278 275 273
232 231 230 229 229 229 228 226 225 224 224 224 225 228 228 228 233 237 235 234 236 237 237 237 237 238 239 241 245 247 245 241 237 236 233 229 227 225 222 224 226 227 226 225 226 226 226 227 227 228 231 233 235 239 242 244 247 249 252 253 255 257 258 260 262 262 264 266 265 266 266 266 266 267 270 275 275 270 269 274 273 271 273 278 279 278 277
232 231 230 230 230 230 230 228 226 225 225 226 227 228 227 227 232 234 233 234 237 236 236 238 238 239 241 244 245 244 241 236 233 232 230 228 227 224 222 224 227 227 227 227 227 228 229 229 229 230 233 234 236 240 244 247 249 250 253 256 258 259 260 261 262 264 266 267 268 268 267 266 267 268 270 277 280 275 271 270 268 268 271 276 278 280 280
233 230 230 231 230 231 231 230 227 225 225 226 228 229 226 226 228 231 232 234 237 236 236 238 240 239 239 240 240 239 238 236 233 231 230 228 227 223 222 225 226 226 227 228 229 230 230 231 232 232 234 236 239 243 247 250 252 253 256 259 260 261 263 263 264 266 267 269 270 269 267 268 271 275 278 281 282 278 274 272 270 268 268 273 279 281 280
237 235 233 232 230 230 230 229 227 226 225 226 228 228 227 226 227 229 231 234 236 234 232 235 237 238 238 238 239 239 239 237 235 234 233 232 230 227 226 227 228 228 228 229 230 231 231 231 232 232 234 237 242 247 251 253 254 256 258 259 260 262 263 263 264 266 269 272 274 274 275 276 278 281 281 281 280 278 276 277 277 271 266 270 279 281 279
241 240 236 231 230 230 229 227 227 227 226 226 227 229 229 228 229 232 235 236 235 232 229 232 234 236 237 238 240 241 239 237 236 237 237 236 235 234 233 232 233 232 230 229 230 231 233 233 233 234 236 240 244 249 251 253 255 258 260 260 260 262 263 263 264 267 270 273 275 278 281 282 281 282 281 280 281 281 280 281 283 277 269 270 275 278 278
242 239 232 229 232 233 232 231 228 228 228 228 228 230 230 230 231 233 235 236 235 232 231 233 234 234 233 234 237 240 238 236 235 236 235 234 234 234 233 233 233 231 228 229 230 232 234 235 233 233 236 238 241 246 250 254 257 260 262 262 263 264 264 264 265 267 270 272 273 277 281 282 281 283 284 283 283 284 283 282 282 280 276 275 274 274 276
241 237 231 232 238 239 236 233 229 228 228 227 227 229 231 230 230 231 233 235 235 234 234 234 233 231 230 233 238 239 237 235 235 235 234 233 233 232 232 233 231 227 225 226 228 230 231 229 228 229 233 235 240 248 255 258 261 263 263 264 264 265 266 266 267 268 270 270 272 276 279 282 283 284 285 284 283 284 285 285 283 280 280 280 275 272 274
238 238 236 237 242 240 234 230 228 229 229 227 227 228 229 229 229 229 231 234 235 234 234 232 230 229 230 234 238 240 238 235 234 235 234 234 234 234 234 234 230 224 220 219 222 225 224 222 224 228 233 238 243 252 259 261 261 262 262 263 264 265 267 269 269 271 271 271 273 275 279 282 284 285 285 284 284 286 287 287 286 282 280 280 276 271 272
239 242 241 240 240 237 231 230 232 234 234 233 232 231 230 229 229 228 229 231 233 232 230 229 228 228 231 233 237 241 240 236 235 235 233 232 233 234 234 230 225 220 217 216 219 222 221 221 225 230 236 242 249 257 262 262 262 262 262 264 266 267 270 272 273 273 273 273 273 276 280 283 284 285 286 286 286 288 288 289 288 284 281 280 276 271 271
241 243 243 241 239 236 234 235 237 237 237 236 232 229 227 227 228 227 227 229 230 228 226 226 227 227 227 229 234 239 240 237 235 233 229 228 230 229 225 221 218 217 215 216 220 223 224 226 231 236 242 249 256 261 263 262 262 264 265 268 269 270 273 275 275 274 274 274 275 277 279 282 284 285 287 288 288 289 290 290 288 285 282 280 274 270 270
239 239 243 242 238 236 236 237 239 240 237 231 225 223 224 225 226 226 224 225 226 224 223 224 226 226 224 225 232 235 233 231 231 229 225 223 222 218 214 214 216 216 216 217 219 222 226 231 237 243 249 256 263 265 263 262 264 267 270 271 272 273 274 275 275 274 275 276 277 277 278 280 283 285 286 287 289 290 291 290 288 285 283 280 274 269 270
237 235 239 242 237 232 234 240 243 239 230 222 219 221 223 221 222 223 221 221 221 219 218 217 217 219 220 222 225 226 223 222 223 222 218 213 209 208 209 212 215 217 218 218 219 222 228 235 241 247 253 260 266 267 265 265 268 271 272 272 272 273 274 274 274 274 275 276 275 275 278 280 282 284 285 287 289 290 289 288 286 284 282 279 275 272 272
235 233 237 242 236 229 237 249 243 230 223 220 218 218 217 215 212 212 212 213 211 207 203 202 205 208 210 211 210 209 207 209 210 209 206 201 199 201 205 211 216 218 218 219 222 227 234 240 244 249 254 260 266 269 269 270 272 273 273 271 272 273 274 274 275 274 274 274 273 274 278 280 281 282 284 285 287 288 287 285 282 280 280 280 278 276 275
230 229 232 236 232 231 243 247 231 220 221 219 211 208 208 207 204 202 202 203 203 199 196 196 199 200 200 198 195 193 194 197 199 198 197 197 199 202 208 213 219 221 223 226 231 236 239 243 247 251 255 261 267 271 272 273 274 275 273 271 272 273 274 276 277 274 271 270 271 273 277 279 280 280 281 282 283 284 285 283 280 279 280 280 278 277 277
225 224 227 234 235 237 241 233 219 213 211 206 203 202 200 199 198 197 196 197 199 199 196 195 195 195 196 196 195 195 198 200 202 201 200 200 203 208 215 219 223 228 231 236 241 243 244 247 251 254 258 263 269 273 275 276 277 277 275 273 272 272 274 276 274 270 268 268 270 272 275 278 279 279 279 279 280 282 281 280 281 282 281 278 276 277 277
222 221 226 234 232 229 226 216 208 202 194 191 195 195 191 190 191 190 190 190 191 193 193 193 194 196 199 200 201 203 206 210 212 212 213 214 215 220 226 230 233 237 238 240 245 249 251 253 257 260 263 267 271 274 277 278 279 278 277 275 272 271 273 273 270 266 266 267 269 271 273 276 278 278 278 279 280 280 278 279 283 283 279 277 277 277 278
217 217 218 220 214 208 204 198 194 192 188 186 185 184 183 185 185 186 187 187 187 189 192 193 197 202 204 206 209 213 214 217 220 221 222 225 228 232 236 240 243 244 243 244 249 255 257 259 261 264 268 272 275 277 278 279 279 278 277 275 272 270 270 269 267 265 266 266 268 269 270 273 277 278 278 280 282 280 278 279 281 280 279 279 279 278 279
212 212 209 208 207 205 201 195 189 187 185 181 179 179 180 182 182 183 185 186 188 192 194 196 200 205 206 207 213 220 223 224 225 224 224 228 235 240 243 246 247 248 248 250 253 257 259 261 264 267 271 275 278 279 279 280 280 279 275 273 272 270 268 267 266 265 264 264 265 266 268 272 277 278 278 281 282 280 278 278 278 278 278 279 280 281 282
213 213 204 203 207 207 201 192 186 185 181 177 176 176 177 178 180 182 184 188 192 196 199 201 202 205 208 210 213 217 220 220 220 221 225 232 239 244 246 249 250 252 253 254 256 258 260 263 265 269 273 277 280 281 280 278 278 276 273 272 271 269 267 265 266 266 264 264 264 265 268 273 276 277 279 282 282 279 277 276 276 277 278 280 282 284 285
210 206 196 193 198 199 195 190 186 185 183 177 174 174 176 177 180 183 185 191 195 198 202 204 202 203 209 213 213 213 214 216 218 222 229 236 241 245 248 250 253 256 258 259 259 261 262 264 266 269 273 278 282 283 279 275 272 271 270 270 270 268 267 267 268 268 267 266 266 266 269 273 276 277 280 282 281 279 278 278 278 278 280 282 285 285 285
206 205 200 200 201 197 193 191 188 187 186 179 173 174 177 180 183 186 189 194 200 204 208 209 206 206 212 218 219 217 219 224 227 232 239 244 247 250 252 254 257 259 261 263 263 263 263 265 267 270 274 278 281 280 276 271 268 266 266 268 268 268 269 270 270 269 268 267 266 267 269 270 272 275 278 279 278 278 281 281 280 280 283 285 287 287 286
207 205 204 207 208 198 193 195 195 194 193 186 181 182 184 185 190 194 196 199 204 209 213 215 214 214 219 224 225 223 226 233 239 243 248 250 252 254 255 258 262 264 265 266 266 265 265 265 267 270 274 277 278 276 272 268 265 263 263 265 268 270 271 272 270 269 269 268 266 266 268 269 270 273 275 277 277 278 281 282 282 284 287 289 289 289 287
207 204 203 206 205 197 195 200 204 205 203 196 190 192 193 193 195 198 200 204 209 213 217 221 223 223 226 231 233 234 238 243 248 251 252 253 254 256 258 261 264 267 268 269 268 267 267 266 267 270 273 274 273 272 269 266 263 262 261 264 269 272 273 272 270 268 268 267 265 265 266 268 269 271 272 275 277 278 280 282 284 287 289 290 289 288 286
204 200 199 201 201 199 199 201 201 204 205 201 198 200 202 202 203 203 204 209 216 218 219 224 229 233 236 239 241 244 247 250 253 255 257 258 261 263 264 265 266 268 271 271 269 267 267 266 266 269 272 272 271 268 265 262 262 261 262 265 270 272 272 270 268 266 266 266 265 266 267 269 270 271 273 275 277 278 280 283 285 287 290 290 289 286 285
199 194 193 194 196 199 200 198 195 198 201 202 202 204 206 207 208 210 213 219 224 226 227 231 235 239 242 244 247 249 251 253 255 258 261 263 266 267 268 268 268 269 271 270 266 264 264 265 266 267 269 269 268 264 261 260 261 262 263 266 269 269 269 268 266 265 266 265 265 267 270 271 273 274 275 275 276 278 281 282 284 287 290 291 290 288 286
195 193 191 191 194 198 198 197 198 200 200 201 203 205 207 212 216 220 224 227 229 231 233 236 239 241 244 249 252 254 255 256 259 261 264 267 269 271 271 270 270 270 269 267 264 263 263 263 263 264 265 264 262 260 259 259 260 262 264 266 267 267 266 266 266 265 265 265 268 271 273 274 275 275 275 275 276 278 280 282 285 288 290 290 289 289 289
185 187 187 190 194 199 199 199 202 205 206 208 209 209 212 217 221 225 228 231 235 237 239 243 247 248 251 255 257 258 259 260 262 265 268 270 271 272 272 271 271 271 270 268 264 262 260 259 259 260 261 260 258 257 258 258 259 262 264 265 267 269 269 268 268 268 268 271 274 275 275 274 274 275 274 274 275 277 280 284 287 289 288 288 288 289 290
181 185 188 191 194 198 199 200 204 209 212 213 213 213 214 216 220 226 231 235 239 242 245 249 252 253 254 257 259 261 264 265 267 268 270 271 272 273 272 271 271 271 271 268 263 260 258 257 258 259 259 258 257 256 256 256 257 261 263 265 268 270 271 270 271 272 272 274 275 275 273 273 274 274 273 273 275 278 282 285 286 287 287 287 288 289 289
184 188 192 195 198 199 198 200 206 209 210 211 213 217 221 223 227 232 236 239 242 245 248 251 254 256 259 262 264 267 269 270 271 273 273 274 274 274 273 271 269 269 269 266 263 261 258 257 258 259 259 257 256 255 255 256 259 262 264 267 270 271 271 271 272 272 273 274 274 274 273 272 272 272 271 273 276 280 282 283 284 286 287 287 288 289 288
187 189 189 192 197 198 197 198 200 198 198 202 208 215 225 232 235 240 245 250 252 255 257 259 260 263 265 267 269 270 271 272 273 274 275 275 274 273 272 270 268 268 268 266 263 261 258 256 257 258 257 256 256 256 257 260 262 264 266 268 270 272 272 271 271 271 273 274 274 273 272 271 270 270 272 275 278 279 279 281 284 286 288 288 288 288 287
176 180 181 184 189 193 195 198 198 194 194 200 205 214 228 239 247 255 260 261 261 261 262 263 265 266 267 268 269 271 271 272 273 273 274 274 274 272 271 270 269 268 269 267 263 259 256 255 255 255 255 256 256 257 259 261 263 265 267 268 268 269 270 269 269 271 272 271 271 271 271 271 271 272 275 277 277 277 278 281 284 287 289 289 289 288 288
161 167 172 177 181 185 188 193 195 194 196 203 213 225 239 250 258 264 266 265 264 264 264 265 266 266 267 268 268 269 271 272 272 272 273 274 275 274 273 272 270 268 267 265 262 259 255 254 254 253 253 255 256 257 259 261 263 265 266 265 265 266 268 270 272 272 271 270 270 271 271 272 273 273 274 275 276 277 279 283 285 288 289 290 290 289 288
164 166 171 177 184 189 192 196 202 207 213 225 238 248 257 265 269 272 272 272 271 270 269 269 269 269 269 270 271 272 274 275 275 275 276 276 276 276 275 272 269 266 264 263 262 259 256 254 253 252 251 252 256 259 259 260 261 263 263 263 265 268 272 274 274 273 273 274 272 270 270 271 272 272 273 275 277 278 281 283 286 288 289 290 290 289 288
173 174 180 188 198 206 209 212 220 231 242 254 263 268 272 275 277 280 281 281 280 279 279 278 278 278 277 278 278 279 279 279 278 277 276 276 275 274 272 268 265 263 262 261 260 258 255 252 251 251 251 251 254 258 261 262 262 262 262 264 269 273 275 275 274 274 276 275 270 266 266 269 271 273 275 276 277 279 281 284 286 288 289 289 290 289 287
190 193 199 207 215 223 228 233 241 252 262 268 271 274 278 282 284 286 287 287 287 286 285 284 284 284 283 283 282 282 281 279 278 277 276 275 274 271 268 265 262 260 259 258 257 256 254 251 250 250 251 252 254 256 259 262 263 263 264 267 272 274 273 273 274 275 274 271 267 265 267 271 273 274 276 277 278 280 283 285 287 288 288 289 288 286 285
202 208 215 222 229 236 243 252 261 267 270 271 274 278 283 286 288 290 291 291 291 290 289 287 286 286 285 284 282 281 280 280 279 279 279 277 275 272 268 265 262 260 259 256 254 253 252 250 249 249 251 253 254 256 257 259 262 264 267 271 272 271 270 271 272 272 270 269 269 269 271 274 275 276 277 280 282 284 285 286 287 287 287 286 286 285 285
212 222 230 237 243 250 256 263 267 269 270 274 278 282 284 286 287 289 291 292 292 292 290 288 287 286 285 284 284 283 282 282 283 283 283 282 279 276 272 267 264 262 257 253 251 251 250 248 248 249 251 252 254 257 258 260 262 266 270 271 270 268 268 269 269 267 267 269 272 273 275 277 278 278 280 284 286 287 287 287 287 286 286 285 286 286 286
225 234 241 248 255 261 264 266 268 269 271 275 279 282 284 285 287 289 291 293 295 295 293 291 290 289 288 288 288 287 287 287 288 288 287 285 282 279 274 269 264 259 254 250 249 249 250 250 251 254 255 256 260 263 264 265 267 270 271 270 266 265 266 267 267 268 270 272 273 274 276 278 278 279 281 284 286 287 287 286 286 286 287 287 287 286 286
236 243 250 256 261 264 267 269 270 272 275 278 283 286 288 289 291 293 295 296 298 299 299 297 294 293 293 293 292 291 291 292 291 290 288 286 282 278 273 267 263 260 257 254 253 253 254 256 257 258 260 261 264 266 266 267 269 270 269 265 263 264 266 268 269 271 273 274 274 275 276 276 277 278 281 283 285 286 286 286 287 288 288 287 286 286 286
242 250 254 259 265 271 275 278 279 280 281 284 286 288 289 290 292 294 296 297 298 300 301 301 298 295 294 294 294 293 293 294 292 290 287 284 279 274 269 266 265 264 262 259 258 257 257 257 258 259 259 261 263 264 264 265 267 268 265 264 265 268 269 270 271 272 272 273 274 275 276 277 279 281 282 284 284 285 285 287 288 288 287 287 287 287 286
247 255 261 267 274 280 284 285 285 282 281 283 285 286 288 289 291 293 295 297 298 299 300 300 299 296 292 291 293 296 299 301 300 297 293 289 282 276 271 270 269 267 265 265 264 261 258 256 257 258 259 260 262 264 265 266 267 266 265 267 269 271 270 270 270 271 271 272 272 273 275 278 280 281 282 282 284 285 286 287 286 286 286 287 287 287 286
253 261 267 273 277 279 282 284 284 281 281 284 287 290 294 295 296 296 295 296 298 300 299 299 299 298 295 294 296 300 305 307 308 307 304 299 292 284 277 273 271 270 270 270 268 264 259 257 258 259 260 261 262 264 266 267 268 268 268 269 271 272 272 271 270 269 270 270 271 273 275 277 278 279 280 282 284 285 286 286 285 286 286 287 286 285 285
255 259 261 265 268 272 275 280 284 286 289 291 292 294 299 302 302 301 299 298 298 300 299 298 299 299 300 300 301 301 302 303 304 303 300 295 290 285 280 276 276 276 274 271 267 264 263 261 260 259 260 261 263 265 268 270 271 271 272 271 271 271 271 270 269 269 269 270 271 273 274 275 277 278 280 282 284 286 286 286 287 288 288 287 286 285 283
250 252 253 257 262 268 272 277 281 283 284 284 285 290 298 304 305 304 303 301 300 300 299 298 297 297 298 299 298 296 294 293 293 294 292 289 287 284 280 277 276 277 275 270 266 265 264 262 261 260 261 262 264 268 270 272 272 272 272 271 271 271 271 270 270 270 270 271 272 273 274 275 277 278 280 282 284 285 286 288 291 292 291 290 289 287 284
246 249 252 257 264 270 274 277 277 276 276 277 280 287 294 299 301 300 299 299 299 300 299 297 296 295 295 295 294 293 291 290 289 289 289 287 285 283 281 279 277 276 274 270 268 266 264 262 262 262 262 263 266 269 271 273 273 273 273 273 272 272 272 271 271 271 271 272 273 274 274 276 277 279 280 282 284 285 286 288 291 293 293 292 291 289 287
250 254 257 261 266 270 274 277 279 279 280 281 283 286 290 293 294 293 292 293 295 297 297 296 295 293 293 293 292 291 290 288 287 287 287 286 284 282 280 279 277 275 272 270 268 266 264 263 264 264 264 265 267 270 273 274 274 274 274 274 273 272 271 270 270 271 272 273 273 274 275 276 278 279 281 282 283 284 286 288 290 293 293 292 291 290 288
258 262 265 266 268 270 273 276 279 281 283 284 284 285 288 290 290 290 290 291 292 293 293 293 293 292 291 291 291 289 288 286 284 285 286 286 285 283 282 279 277 274 272 270 269 267 265 265 266 266 265 266 267 269 271 272 273 273 273 273 272 271 269 269 269 270 272 273 273 274 275 276 278 279 280 281 281 283 284 286 289 291 292 292 291 289 287
262 266 269 272 273 275 276 276 278 280 282 282 283 285 287 288 288 289 291 291 291 290 289 289 289 289 288 288 288 288 287 285 284 284 285 285 284 283 281 279 276 274 272 272 272 270 268 266 266 265 265 265 267 268 268 269 270 271 271 271 271 270 269 269 269 271 272 273 274 275 276 277 278 279 280 280 281 281 283 284 286 288 290 292 291 289 287
266 270 273 275 279 282 282 281 281 283 284 283 284 285 285 285 285 287 288 289 288 288 287 287 287 287 286 286 287 287 287 286 285 285 285 284 282 281 279 278 275 273 273 273 273 272 270 268 267 266 266 266 267 268 268 268 269 270 270 270 271 271 271 272 272 273 274 275 276 276 277 278 279 280 281 281 281 281 281 283 284 285 288 290 290 289 287
271 272 275 277 282 286 288 286 284 284 285 285 285 285 285 284 285 288 289 289 289 289 288 287 287 287 288 288 289 289 288 287 286 286 285 283 281 280 279 278 277 276 275 274 274 273 271 269 267 265 265 266 267 268 268 269 270 270 271 271 272 272 273 274 274 275 276 276 277 278 279 280 280 281 282 282 281 280 280 282 283 284 285 287 288 288 288
272 273 276 279 284 288 290 288 286 286 287 286 285 285 285 285 286 287 289 290 290 289 289 288 288 289 289 290 291 292 292 291 289 287 285 283 281 279 278 277 278 278 277 276 275 273 271 269 267 266 265 266 267 267 268 269 270 271 271 272 272 273 273 274 274 275 276 276 277 278 279 279 280 281 281 282 281 280 280 281 282 283 283 284 285 286 287